Content
SEND FEEDBACK

Daily
Averages
Monthly
Summary
Suriname

ABANNA KONDRE, SURINAME


Home > South America > Suriname
Elevation: 184 feet     Latitude: 05 01N     Longitude: 054 58W

WEATHER
 
SELECT A DAY
Number of Records: 102,326;   Date Range: 6/30/96 - 7/26/14
 
SHARE

PRINT THIS DATA

[ ← Previous Day ]
WEATHER ALMANAC - FEBRUARY 13, 2013
[ Next Day → ]
[ °C ]   °F
Weather ElementAverageHighLow
Temperature73.7 °F86 °F (3:00 pm) (6:00 pm)
Dewpoint70.4 °F77 °F (5:00 pm) (7:00 pm)
Humidity90 %100 % (1:00 am)62 % (4:00 pm)
Barometer29.87 in29.95 in (11:00 am)29.80 in (4:00 pm)
Wind Speed5.4 mph12.7 mph (11:00 am)
Weather ElementAverage
Visibility6.1 mi
Wind DirectionENE (79.5 °)

Weather ElementTotal
Precipitation---
Heating Degree Days22 (Base 65)
Averaged from 22 records on February 13, 2013
WEATHER CONDITIONS BREAKOUT
WIND DIRECTION BREAKOUT
WEATHER BY HOUR - FEBRUARY 13, 2013
[ °C ]   °F
Local TimeTemperatureDewpointHumidityBarometerVisibilityWind DirectionWind SpeedGust SpeedPrecipitationEventsConditions
1:00 AM73.4 °F73.4 °F100 %29.89 in6.2 miNorth (360°)1.2 mphPartly Cloudy
2:00 AM73.4 °F73.4 °F100 %29.86 in6.2 miNW (320°)1.2 mphPartly Cloudy
3:00 AM73.4 °F73.4 °F100 %29.86 in6.2 miESE (110°)3.5 mphPartly Cloudy
4:00 AM73.4 °F71.6 °F94 %29.86 in6.2 miCalmScattered Clouds
5:00 AM71.6 °F71.6 °F100 %29.86 in6.2 miCalmScattered Clouds
6:00 AM71.6 °F71.6 °F100 %29.86 in6.2 miCalmPartly Cloudy
7:00 AM71.6 °F71.6 °F100 %29.86 in6.2 miCalmScattered Clouds
8:00 AM73.4 °F71.6 °F94 %29.89 in6.2 miCalmRainLight Rain Showers
9:00 AM77.0 °F75.2 °F94 %29.89 in6.2 miVariable2.3 mphScattered Clouds
10:00 AM80.6 °F75.2 °F84 %29.92 in6.2 miESE (110°)9.2 mphPartly Cloudy
11:00 AM80.6 °F75.2 °F84 %29.95 in6.2 miENE (60°)12.7 mphScattered Clouds
12:00 PM84.2 °F73.4 °F70 %29.92 in6.2 miENE (60°)12.7 mphScattered Clouds
1:00 PM82.4 °F73.4 °F74 %29.89 in6.2 miNE (50°)11.5 mphScattered Clouds
2:00 PM84.2 °F75.2 °F74 %29.86 in6.2 miENE (70°)9.2 mphRainLight Rain Showers
3:00 PM86.0 °F73.4 °F66 %29.83 in6.2 miEast (80°)9.2 mphScattered Clouds
4:00 PM86.0 °F71.6 °F62 %29.80 in6.2 miNE (50°)10.4 mphScattered Clouds
5:00 PM78.8 °F77.0 °F94 %29.80 in3.7 miEast (80°)11.5 mphRainLight Rain Showers
6:00 PM0.0 °F0.0 °F29.83 in6.2 miEast (80°)6.9 mphRainLight Rain Showers
7:00 PM75.2 °F75.2 °F100 %29.83 in6.2 miENE (60°)5.8 mphPartly Cloudy
8:00 PM75.2 °F75.2 °F100 %29.86 in6.2 miEast (80°)4.6 mphPartly Cloudy
10:00 PM75.2 °F75.2 °F100 %29.89 inESE (110°)2.3 mphClear
11:00 PM75.2 °F75.2 °F100 %29.92 inENE (70°)3.5 mphClear
Hourly data recorded from SMJP, located miles away from Abanna Kondre, Suriname







STORIES FROM OUR PARTNERS